| time (UTC) | temp F | wind direction | speed knots | gust knots | rain 1hr in | rain 24hr in | rain mn in | humidity % | barometer mb |
| 20260503224952 | 80 | 188 | 0.0 | 2.6 | 0.00 | 0.00 | 0.00 | 27 | 1012.4 |
| 20260503224449 | 81 | 269 | 0.9 | 1.7 | 0.00 | 0.00 | 0.00 | 29 | 1012.4 |
| 20260503223947 | 79 | 328 | 0.0 | 1.7 | 0.00 | 0.00 | 0.00 | 29 | 1012.6 |
| 20260503223445 | 79 | 248 | 0.0 | 2.6 | 0.00 | 0.00 | 0.00 | 30 | 1012.7 |
| 20260503222940 | 80 | 299 | 1.7 | 3.5 | 0.00 | 0.00 | 0.00 | 30 | 1012.7 |
| 20260503222439 | 80 | 247 | 1.7 | 2.6 | 0.00 | 0.00 | 0.00 | 30 | 1013.0 |
| 20260503221936 | 79 | 267 | 0.9 | 2.6 | 0.00 | 0.00 | 0.00 | 31 | 1012.9 |
| 20260503221434 | 78 | 334 | 1.7 | 4.3 | 0.00 | 0.00 | 0.00 | 31 | 1012.9 |
| 20260503220931 | 78 | 311 | 0.9 | 3.5 | 0.00 | 0.00 | 0.00 | 32 | 1012.9 |
| 20260503220427 | 78 | 345 | 2.6 | 3.5 | 0.00 | 0.00 | 0.00 | 33 | 1013.0 |
| 20260503215924 | 78 | 13 | 0.9 | 3.5 | 0.00 | 0.00 | 0.00 | 33 | 1013.1 |
| 20260503215421 | 78 | 268 | 1.7 | 4.3 | 0.00 | 0.00 | 0.00 | 33 | 1012.9 |
| 20260503214919 | 77 | 342 | 0.9 | 4.3 | 0.00 | 0.00 | 0.00 | 33 | 1013.0 |
| 20260503214416 | 78 | 341 | 1.7 | 3.5 | 0.00 | 0.00 | 0.00 | 33 | 1013.1 |
| 20260503213914 | 78 | 2 | 0.9 | 5.2 | 0.00 | 0.00 | 0.00 | 32 | 1013.1 |
| 20260503213411 | 78 | 297 | 0.9 | 5.2 | 0.00 | 0.00 | 0.00 | 33 | 1013.2 |
| 20260503212908 | 78 | 309 | 1.7 | 4.3 | 0.00 | 0.00 | 0.00 | 34 | 1013.1 |
| 20260503212406 | 77 | 295 | 2.6 | 3.5 | 0.00 | 0.00 | 0.00 | 36 | 1013.1 |
| 20260503211902 | 78 | 348 | 3.5 | 4.3 | 0.00 | 0.00 | 0.00 | 35 | 1013.4 |
| 20260503211359 | 76 | 343 | 0.0 | 5.2 | 0.00 | 0.00 | 0.00 | 35 | 1013.3 |
| 20260503210854 | 77 | 302 | 3.5 | 3.5 | 0.00 | 0.00 | 0.00 | 34 | 1013.3 |
| 20260503210352 | 77 | 358 | 1.7 | 5.2 | 0.00 | 0.00 | 0.00 | 35 | 1013.2 |
| 20260503205847 | 77 | 248 | 1.7 | 5.2 | 0.00 | 0.00 | 0.00 | 33 | 1013.4 |
| 20260503205344 | 77 | 336 | 4.3 | 4.3 | 0.00 | 0.00 | 0.00 | 34 | 1013.4 |
| 20260503204840 | 77 | 260 | 1.7 | 3.5 | 0.00 | 0.00 | 0.00 | 33 | 1013.4 |
| 20260503204337 | 77 | 333 | 2.6 | 5.2 | 0.00 | 0.00 | 0.00 | 34 | 1013.4 |
| 20260503203835 | 78 | 218 | 1.7 | 5.2 | 0.00 | 0.00 | 0.00 | 34 | 1013.5 |
| 20260503203332 | 77 | 329 | 3.5 | 4.3 | 0.00 | 0.00 | 0.00 | 35 | 1013.5 |
| 20260503202829 | 77 | 241 | 2.6 | 4.3 | 0.00 | 0.00 | 0.00 | 35 | 1013.5 |
| 20260503202327 | 77 | 331 | 2.6 | 4.3 | 0.00 | 0.00 | 0.00 | 35 | 1013.5 |
| 20260503201825 | 77 | 350 | 1.7 | 4.3 | 0.00 | 0.00 | 0.00 | 34 | 1013.5 |
| 20260503201321 | 77 | 143 | 0.0 | 3.5 | 0.00 | 0.00 | 0.00 | 34 | 1013.7 |
| 20260503200819 | 77 | 353 | 2.6 | 4.3 | 0.00 | 0.00 | 0.00 | 35 | 1013.6 |
| 20260503200315 | 76 | 339 | 2.6 | 4.3 | 0.00 | 0.00 | 0.00 | 36 | 1013.8 |
| 20260503195812 | 75 | 343 | 2.6 | 5.2 | 0.00 | 0.00 | 0.00 | 37 | 1013.8 |
| 20260503195309 | 75 | 281 | 0.9 | 3.5 | 0.00 | 0.00 | 0.00 | 38 | 1013.8 |
| 20260503194806 | 75 | 284 | 2.6 | 6.1 | 0.00 | 0.00 | 0.00 | 37 | 1014.0 |
| 20260503194302 | 75 | 345 | 4.3 | 5.2 | 0.00 | 0.00 | 0.00 | 38 | 1014.1 |
| 20260503193758 | 75 | 320 | 2.6 | 5.2 | 0.00 | 0.00 | 0.00 | 38 | 1014.3 |
| 20260503193254 | 75 | 213 | 0.9 | 3.5 | 0.00 | 0.00 | 0.00 | 39 | 1014.0 |
| 20260503192750 | 74 | 312 | 2.6 | 5.2 | 0.00 | 0.00 | 0.00 | 39 | 1014.2 |
| 20260503192245 | 74 | 344 | 5.2 | 5.2 | 0.00 | 0.00 | 0.00 | 40 | 1014.2 |
| 20260503191743 | 73 | 205 | 0.0 | 4.3 | 0.00 | 0.00 | 0.00 | 43 | 1014.2 |
| 20260503191239 | 72 | 4 | 1.7 | 6.1 | 0.00 | 0.00 | 0.00 | 43 | 1014.2 |
| 20260503190731 | 72 | 359 | 3.5 | 5.2 | 0.00 | 0.00 | 0.00 | 43 | 1014.2 |
| 20260503190227 | 72 | 347 | 4.3 | 6.1 | 0.00 | 0.00 | 0.00 | 42 | 1014.3 |
| 20260503185725 | 72 | 338 | 3.5 | 6.1 | 0.00 | 0.00 | 0.00 | 45 | 1014.3 |
| 20260503185221 | 72 | 336 | 3.5 | 3.5 | 0.00 | 0.00 | 0.00 | 45 | 1014.4 |
| 20260503184716 | 72 | 357 | 3.5 | 5.2 | 0.00 | 0.00 | 0.00 | 43 | 1014.2 |
| 20260503184212 | 73 | 46 | 0.9 | 4.3 | 0.00 | 0.00 | 0.00 | 43 | 1014.6 |
| 20260503183709 | 73 | 249 | 1.7 | 2.6 | 0.00 | 0.00 | 0.00 | 43 | 1014.4 |
| 20260503183206 | 73 | 5 | 0.9 | 2.6 | 0.00 | 0.00 | 0.00 | 43 | 1014.4 |
| 20260503182704 | 73 | 344 | 3.5 | 3.5 | 0.00 | 0.00 | 0.00 | 43 | 1014.4 |
| 20260503182203 | 73 | 42 | 1.7 | 2.6 | 0.00 | 0.00 | 0.00 | 44 | 1014.7 |
| 20260503181658 | 73 | 339 | 0.9 | 2.6 | 0.00 | 0.00 | 0.00 | 45 | 1014.4 |
| 20260503181155 | 72 | 0 | 1.7 | 3.5 | 0.00 | 0.00 | 0.00 | 45 | 1014.6 |
| 20260503180652 | 72 | 13 | 2.6 | 3.5 | 0.00 | 0.00 | 0.00 | 46 | 1014.7 |
| 20260503180151 | 72 | 9 | 1.7 | 2.6 | 0.00 | 0.00 | 0.00 | 46 | 1014.7 |
| 20260503175647 | 70 | 66 | 1.7 | 5.2 | 0.00 | 0.00 | 0.00 | 49 | 1014.9 |
| 20260503175144 | 70 | 9 | 1.7 | 3.5 | 0.00 | 0.00 | 0.00 | 47 | 1014.8 |
| 20260503174640 | 70 | 109 | 1.7 | 2.6 | 0.00 | 0.00 | 0.00 | 49 | 1014.9 |
| 20260503174138 | 68 | 19 | 1.7 | 2.6 | 0.00 | 0.00 | 0.00 | 52 | 1014.9 |
| 20260503173633 | 67 | 12 | 1.7 | 3.5 | 0.00 | 0.00 | 0.00 | 51 | 1014.8 |
| 20260503173130 | 67 | 92 | 1.7 | 4.3 | 0.00 | 0.00 | 0.00 | 52 | 1014.8 |
| 20260503172626 | 67 | 354 | 1.7 | 6.1 | 0.00 | 0.00 | 0.00 | 50 | 1014.9 |
| 20260503172124 | 68 | 50 | 2.6 | 4.3 | 0.00 | 0.00 | 0.00 | 49 | 1014.8 |
| 20260503171620 | 69 | 13 | 2.6 | 4.3 | 0.00 | 0.00 | 0.00 | 48 | 1014.7 |
| 20260503171117 | 68 | 351 | 3.5 | 4.3 | 0.00 | 0.00 | 0.00 | 49 | 1014.7 |
| 20260503170614 | 67 | 343 | 3.5 | 6.1 | 0.00 | 0.00 | 0.00 | 51 | 1014.8 |
| 20260503170110 | 68 | 10 | 6.1 | 8.7 | 0.00 | 0.00 | 0.00 | 49 | 1014.8 |
| 20260503151006 | 64 | 271 | 0.0 | 4.3 | 0.00 | 0.00 | 0.00 | 53 | 1015.0 |
| 20260503150502 | 64 | 8 | 5.2 | 5.2 | 0.00 | 0.00 | 0.00 | 54 | 1015.3 |
| 20260503131344 | 63 | 140 | 0.0 | 1.7 | 0.00 | 0.00 | 0.00 | 48 | 1014.9 |
| 20260503130841 | 62 | 74 | 1.7 | 1.7 | 0.00 | 0.00 | 0.00 | 48 | 1014.8 |
| 20260503130339 | 62 | 134 | 0.0 | 1.7 | 0.00 | 0.00 | 0.00 | 48 | 1014.8 |
| 20260503110733 | 64 | 149 | 1.7 | 1.7 | 0.00 | 0.00 | 0.00 | 43 | 1015.1 |
| 20260503110230 | 65 | 154 | 0.0 | 1.7 | 0.00 | 0.00 | 0.00 | 42 | 1015.4 |
| 20260503100156 | 65 | 134 | 1.7 | 3.5 | 0.00 | 0.00 | 0.00 | 42 | 1015.5 |
| 20260503090114 | 67 | 73 | 0.9 | 1.7 | 0.00 | 0.00 | 0.00 | 36 | 1015.3 |
| 20260503081550 | 66 | 4 | 1.7 | 2.6 | 0.00 | 0.00 | 0.00 | 41 | 1015.1 |
| 20260503081047 | 65 | 0 | 1.7 | 2.6 | 0.00 | 0.00 | 0.00 | 41 | 1015.3 |
| 20260503080544 | 65 | 3 | 1.7 | 3.5 | 0.00 | 0.00 | 0.00 | 43 | 1015.3 |
| 20260503072517 | 65 | 2 | 1.7 | 3.5 | 0.00 | 0.00 | 0.00 | 43 | 1015.1 |
| 20260503072014 | 64 | 352 | 1.7 | 3.5 | 0.00 | 0.00 | 0.00 | 43 | 1015.2 |
| 20260503071511 | 64 | 357 | 2.6 | 2.6 | 0.00 | 0.00 | 0.00 | 44 | 1015.3 |
| 20260503071008 | 65 | 8 | 1.7 | 3.5 | 0.00 | 0.00 | 0.00 | 44 | 1015.2 |
| 20260503070504 | 64 | 322 | 0.9 | 4.3 | 0.00 | 0.00 | 0.00 | 44 | 1015.2 |
| 20260503054922 | 65 | 337 | 3.5 | 3.5 | 0.00 | 0.00 | 0.00 | 45 | 1015.0 |
| 20260503054419 | 64 | 332 | 1.7 | 3.5 | 0.00 | 0.00 | 0.00 | 46 | 1015.1 |
| 20260503053917 | 64 | 324 | 1.7 | 2.6 | 0.00 | 0.00 | 0.00 | 47 | 1015.2 |
| 20260503053414 | 65 | 338 | 1.7 | 3.5 | 0.00 | 0.00 | 0.00 | 45 | 1015.2 |
| 20260503052910 | 65 | 278 | 0.0 | 3.5 | 0.00 | 0.00 | 0.00 | 44 | 1015.1 |
| 20260503052408 | 66 | 269 | 0.0 | 3.5 | 0.00 | 0.00 | 0.00 | 43 | 1015.2 |
| 20260503051904 | 66 | 17 | 0.0 | 1.7 | 0.00 | 0.00 | 0.00 | 42 | 1015.2 |
| 20260503051400 | 66 | 230 | 0.0 | 1.7 | 0.00 | 0.00 | 0.00 | 42 | 1015.3 |
| 20260503050857 | 66 | 302 | 0.0 | 1.7 | 0.00 | 0.00 | 0.00 | 43 | 1015.3 |
| 20260503050353 | 66 | 320 | 0.0 | 1.7 | 0.00 | 0.00 | 0.00 | 42 | 1015.4 |
| 20260503045851 | 66 | 323 | 0.9 | 2.6 | 0.00 | 0.00 | 0.00 | 42 | 1015.2 |
| 20260503045349 | 65 | 325 | 0.0 | 1.7 | 0.00 | 0.00 | 0.00 | 42 | 1015.2 |
| 20260503044845 | 65 | 315 | 1.7 | 4.3 | 0.00 | 0.00 | 0.00 | 44 | 1015.1 |
| 20260503044342 | 65 | 304 | 1.7 | 3.5 | 0.00 | 0.00 | 0.00 | 44 | 1015.0 |
| 20260503043839 | 66 | 308 | 1.7 | 3.5 | 0.00 | 0.00 | 0.00 | 43 | 1014.8 |
| 20260503043336 | 66 | 311 | 0.9 | 3.5 | 0.00 | 0.00 | 0.00 | 43 | 1014.9 |
| 20260503042832 | 66 | 305 | 1.7 | 2.6 | 0.00 | 0.00 | 0.00 | 43 | 1014.9 |
| 20260503042329 | 66 | 312 | 1.7 | 1.7 | 0.00 | 0.00 | 0.00 | 42 | 1014.9 |
| 20260503041825 | 66 | 321 | 1.7 | 1.7 | 0.00 | 0.00 | 0.00 | 42 | 1014.9 |
| 20260503041322 | 66 | 305 | 0.9 | 1.7 | 0.00 | 0.00 | 0.00 | 41 | 1014.9 |
| 20260503040820 | 67 | 309 | 0.9 | 1.7 | 0.00 | 0.00 | 0.00 | 41 | 1014.9 |
| 20260503040317 | 67 | 316 | 2.6 | 2.6 | 0.00 | 0.00 | 0.00 | 40 | 1014.8 |
| 20260503035814 | 68 | 291 | 2.6 | 4.3 | 0.00 | 0.00 | 0.00 | 39 | 1014.4 |
| 20260503035312 | 68 | 326 | 1.7 | 4.3 | 0.00 | 0.00 | 0.00 | 40 | 1014.6 |
| 20260503034809 | 67 | 316 | 2.6 | 4.3 | 0.00 | 0.00 | 0.00 | 40 | 1014.6 |
| 20260503034305 | 67 | 299 | 1.7 | 2.6 | 0.00 | 0.00 | 0.00 | 40 | 1014.3 |
| 20260503033803 | 68 | 303 | 1.7 | 2.6 | 0.00 | 0.00 | 0.00 | 40 | 1014.6 |
| 20260503033300 | 67 | 301 | 0.9 | 2.6 | 0.00 | 0.00 | 0.00 | 40 | 1014.3 |
| 20260503032758 | 67 | 305 | 0.9 | 1.7 | 0.00 | 0.00 | 0.00 | 41 | 1014.6 |
| 20260503032257 | 67 | 291 | 0.0 | 2.6 | 0.00 | 0.00 | 0.00 | 40 | 1014.3 |
| 20260503031753 | 67 | 261 | 0.0 | 1.7 | 0.00 | 0.00 | 0.00 | 41 | 1014.4 |
| 20260503031252 | 67 | 305 | 0.0 | 0.9 | 0.00 | 0.00 | 0.00 | 39 | 1014.4 |
| 20260503030747 | 67 | 291 | 0.0 | 1.7 | 0.00 | 0.00 | 0.00 | 40 | 1014.4 |
| 20260503030244 | 68 | 200 | 1.7 | 1.7 | 0.00 | 0.00 | 0.00 | 41 | 1014.3 |
| 20260503025741 | 68 | 138 | 1.7 | 2.6 | 0.00 | 0.00 | 0.00 | 40 | 1014.3 |
| 20260503025239 | 68 | 170 | 0.0 | 1.7 | 0.00 | 0.00 | 0.00 | 39 | 1014.3 |
| 20260503024735 | 68 | 249 | 1.7 | 1.7 | 0.00 | 0.00 | 0.00 | 40 | 1014.2 |
| 20260503024232 | 69 | 112 | 0.9 | 1.7 | 0.00 | 0.00 | 0.00 | 39 | 1014.3 |
| 20260503023729 | 69 | 129 | 0.0 | 1.7 | 0.00 | 0.00 | 0.00 | 41 | 1014.1 |
| 20260503023226 | 69 | 163 | 0.9 | 3.5 | 0.00 | 0.00 | 0.00 | 41 | 1014.4 |
| 20260503022722 | 69 | 104 | 1.7 | 3.5 | 0.00 | 0.00 | 0.00 | 40 | 1014.2 |
| 20260503022222 | 69 | 120 | 1.7 | 1.7 | 0.00 | 0.00 | 0.00 | 41 | 1014.2 |
| 20260503021719 | 70 | 120 | 2.6 | 2.6 | 0.00 | 0.00 | 0.00 | 41 | 1014.4 |
| 20260503021215 | 70 | 109 | 2.6 | 4.3 | 0.00 | 0.00 | 0.00 | 37 | 1014.4 |
| 20260503020713 | 70 | 190 | 4.3 | 4.3 | 0.00 | 0.00 | 0.00 | 40 | 1014.6 |
| 20260503020210 | 70 | 105 | 0.9 | 3.5 | 0.00 | 0.00 | 0.00 | 40 | 1014.3 |
| 20260503015707 | 70 | 49 | 0.0 | 1.7 | 0.00 | 0.00 | 0.00 | 39 | 1014.6 |
| 20260503015204 | 70 | 160 | 2.6 | 3.5 | 0.00 | 0.00 | 0.00 | 39 | 1014.6 |
| 20260503014700 | 71 | 117 | 4.3 | 4.3 | 0.00 | 0.00 | 0.00 | 39 | 1014.4 |
| 20260503014158 | 71 | 119 | 0.0 | 5.2 | 0.00 | 0.00 | 0.00 | 39 | 1014.6 |
| 20260503013655 | 71 | 176 | 3.5 | 3.5 | 0.00 | 0.00 | 0.00 | 41 | 1014.8 |
| 20260503013153 | 71 | 128 | 1.7 | 2.6 | 0.00 | 0.00 | 0.00 | 41 | 1014.8 |
| 20260503012649 | 71 | 180 | 1.7 | 2.6 | 0.00 | 0.00 | 0.00 | 42 | 1014.7 |
| 20260503012146 | 71 | 110 | 1.7 | 4.3 | 0.00 | 0.00 | 0.00 | 42 | 1014.6 |
| 20260503011643 | 71 | 326 | 3.5 | 5.2 | 0.00 | 0.00 | 0.00 | 41 | 1014.7 |
| 20260503011140 | 72 | 75 | 1.7 | 2.6 | 0.00 | 0.00 | 0.00 | 40 | 1014.7 |
| 20260503010636 | 72 | 110 | 1.7 | 2.6 | 0.00 | 0.00 | 0.00 | 39 | 1014.7 |
| 20260503010134 | 72 | 175 | 1.7 | 4.3 | 0.00 | 0.00 | 0.00 | 40 | 1014.6 |
| 20260503005631 | 72 | 359 | 0.0 | 3.5 | 0.00 | 0.00 | 0.00 | 39 | 1014.8 |
| 20260503005128 | 73 | 315 | 0.0 | 4.3 | 0.00 | 0.00 | 0.00 | 38 | 1014.6 |
| 20260503004624 | 75 | 88 | 2.6 | 2.6 | 0.00 | 0.00 | 0.00 | 38 | 1014.7 |
| 20260503004123 | 74 | 348 | 0.0 | 3.5 | 0.00 | 0.00 | 0.00 | 38 | 1014.7 |
| 20260503003619 | 74 | 243 | 0.0 | 4.3 | 0.00 | 0.00 | 0.00 | 39 | 1014.7 |
| 20260503003116 | 75 | 7 | 1.7 | 3.5 | 0.00 | 0.00 | 0.00 | 39 | 1014.8 |
| 20260503002613 | 75 | 334 | 1.7 | 2.6 | 0.00 | 0.00 | 0.00 | 38 | 1014.8 |
| 20260503002110 | 75 | 0 | 3.5 | 3.5 | 0.00 | 0.00 | 0.00 | 38 | 1014.9 |
| 20260503001606 | 74 | 45 | 0.9 | 2.6 | 0.00 | 0.00 | 0.00 | 40 | 1014.8 |
| 20260503001103 | 73 | 224 | 0.0 | 2.6 | 0.00 | 0.00 | 0.00 | 39 | 1014.8 |
| 20260503000600 | 74 | 33 | 0.9 | 4.3 | 0.00 | 0.00 | 0.00 | 38 | 1014.8 |
| 20260503000057 | 74 | 27 | 1.7 | 5.2 | 0.00 | 0.00 | 0.00 | 39 | 1014.6 |
| 20260502235554 | 74 | 33 | 0.9 | 3.5 | 0.00 | 0.00 | 0.00 | 39 | 1014.9 |
| 20260502235052 | 75 | 269 | 0.0 | 4.3 | 0.00 | 0.00 | 0.00 | 38 | 1014.9 |
| 20260502234548 | 75 | 280 | 1.7 | 2.6 | 0.00 | 0.00 | 0.00 | 38 | 1014.7 |
| 20260502234046 | 75 | 23 | 0.9 | 2.6 | 0.00 | 0.00 | 0.00 | 38 | 1014.8 |
| 20260502233546 | 75 | 332 | 1.7 | 2.6 | 0.00 | 0.00 | 0.00 | 38 | 1015.0 |
| 20260502233043 | 73 | 322 | 1.7 | 3.5 | 0.00 | 0.00 | 0.00 | 39 | 1014.9 |
| 20260502232534 | 74 | 88 | 1.7 | 4.3 | 0.00 | 0.00 | 0.00 | 39 | 1015.2 |
| 20260502232031 | 74 | 162 | 3.5 | 4.3 | 0.00 | 0.00 | 0.00 | 39 | 1015.1 |
| 20260502231528 | 73 | 255 | 2.6 | 3.5 | 0.00 | 0.00 | 0.00 | 39 | 1015.0 |
| 20260502231026 | 72 | 121 | 0.0 | 3.5 | 0.00 | 0.00 | 0.00 | 40 | 1015.2 |
| 20260502230524 | 72 | 5 | 2.6 | 6.1 | 0.00 | 0.00 | 0.00 | 41 | 1015.3 |
| 20260502230023 | 72 | 260 | 1.7 | 6.1 | 0.00 | 0.00 | 0.00 | 41 | 1015.3 |
| 20260502225522 | 72 | 336 | 3.5 | 4.3 | 0.00 | 0.00 | 0.00 | 40 | 1015.6 |